Year,Month,Day,Hour,Minute,Value (Times are PST for windgust in km/hr)
2010,08,28,00,00,8.10
2010,08,28,00,01,9.60
2010,08,28,00,02,11.30
2010,08,28,00,03,9.60
2010,08,28,00,04,9.60
2010,08,28,00,05,9.60
2010,08,28,00,06,11.30
2010,08,28,00,07,8.10
2010,08,28,00,08,8.10
2010,08,28,00,09,4.80
2010,08,28,00,10,9.60
2010,08,28,00,11,8.10
2010,08,28,00,12,9.60
2010,08,28,00,13,8.10
2010,08,28,00,14,11.30
2010,08,28,00,15,8.10
2010,08,28,00,16,6.40
2010,08,28,00,17,8.10
2010,08,28,00,18,8.10
2010,08,28,00,19,8.10
2010,08,28,00,20,8.10
2010,08,28,00,21,6.40
2010,08,28,00,22,9.60
2010,08,28,00,23,4.80
2010,08,28,00,24,6.40
2010,08,28,00,25,4.80
2010,08,28,00,26,3.20
2010,08,28,00,27,9.60
2010,08,28,00,28,11.30
2010,08,28,00,29,9.60
2010,08,28,00,30,9.60
2010,08,28,00,31,8.10
2010,08,28,00,32,8.10
2010,08,28,00,33,4.80
2010,08,28,00,34,4.80
2010,08,28,00,35,4.80
2010,08,28,00,36,6.40
2010,08,28,00,37,8.10
2010,08,28,00,38,8.10
2010,08,28,00,39,4.80
2010,08,28,00,40,3.20
2010,08,28,00,41,4.80
2010,08,28,00,42,9.60
2010,08,28,00,43,9.60
2010,08,28,00,44,9.60
2010,08,28,00,45,8.10
2010,08,28,00,46,4.80
2010,08,28,00,47,8.10
2010,08,28,00,48,9.60
2010,08,28,00,49,6.40
2010,08,28,00,50,9.60
2010,08,28,00,51,11.30
2010,08,28,00,52,8.10
2010,08,28,00,53,4.80
2010,08,28,00,54,6.40
2010,08,28,00,55,4.80
2010,08,28,00,56,11.30
2010,08,28,00,57,8.10
2010,08,28,00,58,4.80
2010,08,28,00,59,9.60
2010,08,28,01,00,8.10
2010,08,28,01,01,8.10
2010,08,28,01,02,8.10
2010,08,28,01,03,6.40
2010,08,28,01,04,4.80
2010,08,28,01,05,8.10
2010,08,28,01,06,8.10
2010,08,28,01,07,6.40
2010,08,28,01,08,8.10
2010,08,28,01,09,8.10
2010,08,28,01,10,8.10
2010,08,28,01,11,9.60
2010,08,28,01,12,9.60
2010,08,28,01,13,8.10
2010,08,28,01,14,11.30
2010,08,28,01,15,9.60
2010,08,28,01,16,11.30
2010,08,28,01,17,16.10
2010,08,28,01,18,11.30
2010,08,28,01,19,8.10
2010,08,28,01,20,8.10
2010,08,28,01,21,6.40
2010,08,28,01,22,8.10
2010,08,28,01,23,8.10
2010,08,28,01,24,8.10
2010,08,28,01,25,8.10
2010,08,28,01,26,8.10
2010,08,28,01,27,4.80
2010,08,28,01,28,8.10
2010,08,28,01,29,12.90
2010,08,28,01,30,12.90
2010,08,28,01,31,6.40
2010,08,28,01,32,6.40
2010,08,28,01,33,6.40
2010,08,28,01,34,6.40
2010,08,28,01,35,9.60
2010,08,28,01,36,3.20
2010,08,28,01,37,6.40
2010,08,28,01,38,6.40
2010,08,28,01,39,9.60
2010,08,28,01,40,9.60
2010,08,28,01,41,4.80
2010,08,28,01,42,6.40
2010,08,28,01,43,11.30
2010,08,28,01,44,8.10
2010,08,28,01,45,6.40
2010,08,28,01,46,4.80
2010,08,28,01,47,4.80
2010,08,28,01,48,3.20
2010,08,28,01,49,4.80
2010,08,28,01,50,8.10
2010,08,28,01,51,9.60
2010,08,28,01,52,9.60
2010,08,28,01,53,9.60
2010,08,28,01,54,8.10
2010,08,28,01,55,9.60
2010,08,28,01,56,9.60
2010,08,28,01,57,9.60
2010,08,28,01,58,9.60
2010,08,28,01,59,8.10
2010,08,28,02,00,6.40
2010,08,28,02,01,4.80
2010,08,28,02,02,6.40
2010,08,28,02,03,6.40
2010,08,28,02,04,4.80
2010,08,28,02,05,4.80
2010,08,28,02,06,3.20
2010,08,28,02,07,4.80
2010,08,28,02,08,3.20
2010,08,28,02,09,6.40
2010,08,28,02,10,6.40
2010,08,28,02,11,4.80
2010,08,28,02,12,8.10
2010,08,28,02,13,6.40
2010,08,28,02,14,9.60
2010,08,28,02,15,6.40
2010,08,28,02,16,6.40
2010,08,28,02,17,3.20
2010,08,28,02,18,1.60
2010,08,28,02,19,4.80
2010,08,28,02,20,8.10
2010,08,28,02,21,9.60
2010,08,28,02,22,9.60
2010,08,28,02,23,4.80
2010,08,28,02,24,4.80
2010,08,28,02,25,4.80
2010,08,28,02,26,4.80
2010,08,28,02,27,4.80
2010,08,28,02,28,6.40
2010,08,28,02,29,3.20
2010,08,28,02,30,4.80
2010,08,28,02,31,4.80
2010,08,28,02,32,3.20
2010,08,28,02,33,6.40
2010,08,28,02,34,6.40
2010,08,28,02,35,4.80
2010,08,28,02,36,3.20
2010,08,28,02,37,6.40
2010,08,28,02,38,6.40
2010,08,28,02,39,6.40
2010,08,28,02,40,6.40
2010,08,28,02,41,6.40
2010,08,28,02,42,8.10
2010,08,28,02,43,6.40
2010,08,28,02,44,8.10
2010,08,28,02,45,8.10
2010,08,28,02,46,9.60
2010,08,28,02,47,8.10
2010,08,28,02,48,8.10
2010,08,28,02,49,6.40
2010,08,28,02,50,8.10
2010,08,28,02,51,6.40
2010,08,28,02,52,8.10
2010,08,28,02,53,6.40
2010,08,28,02,54,4.80
2010,08,28,02,55,8.10
2010,08,28,02,56,4.80
2010,08,28,02,57,4.80
2010,08,28,02,58,4.80
2010,08,28,02,59,6.40
2010,08,28,03,00,8.10
2010,08,28,03,01,8.10
2010,08,28,03,03,6.40
2010,08,28,03,04,6.40
2010,08,28,03,05,6.40
2010,08,28,03,06,6.40
2010,08,28,03,07,6.40
2010,08,28,03,08,6.40
2010,08,28,03,09,6.40
2010,08,28,03,10,6.40
2010,08,28,03,11,4.80
2010,08,28,03,12,8.10
2010,08,28,03,13,11.30
2010,08,28,03,14,9.60
2010,08,28,03,15,9.60
2010,08,28,03,16,9.60
2010,08,28,03,17,9.60
2010,08,28,03,18,9.60
2010,08,28,03,19,8.10
2010,08,28,03,20,6.40
2010,08,28,03,21,8.10
2010,08,28,03,22,9.60
2010,08,28,03,23,8.10
2010,08,28,03,24,6.40
2010,08,28,03,25,4.80
2010,08,28,03,26,4.80
2010,08,28,03,27,8.10
2010,08,28,03,28,6.40
2010,08,28,03,29,4.80
2010,08,28,03,30,4.80
2010,08,28,03,31,4.80
2010,08,28,03,32,6.40
2010,08,28,03,33,4.80
2010,08,28,03,34,4.80
2010,08,28,03,35,3.20
2010,08,28,03,36,3.20
2010,08,28,03,37,4.80
2010,08,28,03,38,3.20
2010,08,28,03,39,3.20
2010,08,28,03,40,4.80
2010,08,28,03,41,3.20
2010,08,28,03,42,6.40
2010,08,28,03,43,6.40
2010,08,28,03,44,4.80
2010,08,28,03,45,8.10
2010,08,28,03,46,6.40
2010,08,28,03,47,6.40
2010,08,28,03,48,6.40
2010,08,28,03,49,6.40
2010,08,28,03,50,6.40
2010,08,28,03,51,6.40
2010,08,28,03,52,4.80
2010,08,28,03,53,6.40
2010,08,28,03,54,4.80
2010,08,28,03,55,9.60
2010,08,28,03,56,9.60
2010,08,28,03,57,8.10
2010,08,28,03,58,8.10
2010,08,28,03,59,9.60
2010,08,28,04,00,9.60
2010,08,28,04,01,9.60
2010,08,28,04,02,6.40
2010,08,28,04,03,9.60
2010,08,28,04,04,6.40
2010,08,28,04,05,4.80
2010,08,28,04,06,9.60
2010,08,28,04,07,9.60
2010,08,28,04,08,6.40
2010,08,28,04,09,9.60
2010,08,28,04,10,11.30
2010,08,28,04,11,8.10
2010,08,28,04,12,9.60
2010,08,28,04,13,9.60
2010,08,28,04,14,11.30
2010,08,28,04,15,9.60
2010,08,28,04,16,9.60
2010,08,28,04,17,9.60
2010,08,28,04,18,8.10
2010,08,28,04,19,8.10
2010,08,28,04,20,6.40
2010,08,28,04,21,8.10
2010,08,28,04,22,9.60
2010,08,28,04,23,8.10
2010,08,28,04,24,6.40
2010,08,28,04,25,3.20
2010,08,28,04,26,9.60
2010,08,28,04,27,9.60
2010,08,28,04,28,8.10
2010,08,28,04,29,6.40
2010,08,28,04,30,8.10
2010,08,28,04,31,9.60
2010,08,28,04,32,8.10
2010,08,28,04,33,6.40
2010,08,28,04,34,4.80
2010,08,28,04,35,8.10
2010,08,28,04,36,6.40
2010,08,28,04,37,9.60
2010,08,28,04,38,6.40
2010,08,28,04,39,4.80
2010,08,28,04,40,4.80
2010,08,28,04,41,6.40
2010,08,28,04,42,8.10
2010,08,28,04,43,8.10
2010,08,28,04,44,8.10
2010,08,28,04,45,8.10
2010,08,28,04,46,6.40
2010,08,28,04,47,8.10
2010,08,28,04,48,9.60
2010,08,28,04,49,9.60
2010,08,28,04,50,8.10
2010,08,28,04,51,8.10
2010,08,28,04,52,11.30
2010,08,28,04,53,11.30
2010,08,28,04,54,14.50
2010,08,28,04,55,14.50
2010,08,28,04,56,11.30
2010,08,28,04,57,11.30
2010,08,28,04,58,9.60
2010,08,28,04,59,11.30
2010,08,28,05,00,9.60
2010,08,28,05,01,11.30
2010,08,28,05,02,12.90
2010,08,28,05,03,8.10
2010,08,28,05,04,11.30
2010,08,28,05,05,11.30
2010,08,28,05,06,9.60
2010,08,28,05,07,14.50
2010,08,28,05,08,11.30
2010,08,28,05,09,11.30
2010,08,28,05,10,9.60
2010,08,28,05,11,9.60
2010,08,28,05,12,8.10
2010,08,28,05,13,8.10
2010,08,28,05,14,9.60
2010,08,28,05,15,6.40
2010,08,28,05,16,8.10
2010,08,28,05,17,4.80
2010,08,28,05,18,8.10
2010,08,28,05,19,6.40
2010,08,28,05,20,11.30
2010,08,28,05,21,8.10
2010,08,28,05,22,8.10
2010,08,28,05,23,8.10
2010,08,28,05,24,11.30
2010,08,28,05,25,6.40
2010,08,28,05,26,9.60
2010,08,28,05,27,16.10
2010,08,28,05,28,14.50
2010,08,28,05,29,9.60
2010,08,28,05,30,6.40
2010,08,28,05,31,11.30
2010,08,28,05,32,11.30
2010,08,28,05,33,11.30
2010,08,28,05,34,8.10
2010,08,28,05,35,9.60
2010,08,28,05,36,9.60
2010,08,28,05,37,8.10
2010,08,28,05,38,11.30
2010,08,28,05,39,14.50
2010,08,28,05,40,9.60
2010,08,28,05,41,12.90
2010,08,28,05,42,9.60
2010,08,28,05,43,9.60
2010,08,28,05,44,14.50
2010,08,28,05,45,8.10
2010,08,28,05,46,11.30
2010,08,28,05,47,9.60
2010,08,28,05,48,16.10
2010,08,28,05,49,9.60
2010,08,28,05,50,9.60
2010,08,28,05,51,14.50
2010,08,28,05,52,9.60
2010,08,28,05,53,8.10
2010,08,28,05,54,6.40
2010,08,28,05,55,8.10
2010,08,28,05,56,9.60
2010,08,28,05,57,9.60
2010,08,28,05,58,8.10
2010,08,28,05,59,9.60
2010,08,28,06,00,9.60
2010,08,28,06,01,8.10
2010,08,28,06,02,8.10
2010,08,28,06,03,12.90
2010,08,28,06,04,4.80
2010,08,28,06,05,11.30
2010,08,28,06,06,11.30
2010,08,28,06,07,9.60
2010,08,28,06,08,8.10
2010,08,28,06,09,14.50
2010,08,28,06,10,14.50
2010,08,28,06,11,11.30
2010,08,28,06,12,12.90
2010,08,28,06,13,8.10
2010,08,28,06,14,11.30
2010,08,28,06,15,9.60
2010,08,28,06,16,9.60
2010,08,28,06,17,8.10
2010,08,28,06,18,6.40
2010,08,28,06,19,11.30
2010,08,28,06,20,9.60
2010,08,28,06,21,6.40
2010,08,28,06,22,9.60
2010,08,28,06,23,14.50
2010,08,28,06,24,8.10
2010,08,28,06,25,9.60
2010,08,28,06,26,8.10
2010,08,28,06,27,6.40
2010,08,28,06,28,11.30
2010,08,28,06,29,9.60
2010,08,28,06,30,6.40
2010,08,28,06,31,11.30
2010,08,28,06,32,8.10
2010,08,28,06,33,8.10
2010,08,28,06,34,8.10
2010,08,28,06,35,8.10
2010,08,28,06,36,11.30
2010,08,28,06,37,9.60
2010,08,28,06,38,11.30
2010,08,28,06,39,9.60
2010,08,28,06,40,6.40
2010,08,28,06,41,8.10
2010,08,28,06,42,11.30
2010,08,28,06,43,11.30
2010,08,28,06,44,11.30
2010,08,28,06,45,11.30
2010,08,28,06,46,9.60
2010,08,28,06,47,9.60
2010,08,28,06,48,9.60
2010,08,28,06,49,8.10
2010,08,28,06,50,11.30
2010,08,28,06,51,11.30
2010,08,28,06,52,16.10
2010,08,28,06,53,17.70
2010,08,28,06,54,9.60
2010,08,28,06,55,11.30
2010,08,28,06,56,8.10
2010,08,28,06,57,9.60
2010,08,28,06,58,12.90
2010,08,28,06,59,9.60
2010,08,28,07,00,16.10
2010,08,28,07,01,9.60
2010,08,28,07,02,14.50
2010,08,28,07,03,9.60
2010,08,28,07,04,16.10
2010,08,28,07,05,12.90
2010,08,28,07,06,9.60
2010,08,28,07,07,11.30
2010,08,28,07,08,11.30
2010,08,28,07,09,14.50
2010,08,28,07,10,8.10
2010,08,28,07,11,8.10
2010,08,28,07,12,8.10
2010,08,28,07,13,8.10
2010,08,28,07,14,11.30
2010,08,28,07,15,11.30
2010,08,28,07,16,8.10
2010,08,28,07,17,16.10
2010,08,28,07,18,12.90
2010,08,28,07,19,14.50
2010,08,28,07,20,12.90
2010,08,28,07,21,6.40
2010,08,28,07,22,8.10
2010,08,28,07,23,6.40
2010,08,28,07,24,8.10
2010,08,28,07,25,8.10
2010,08,28,07,26,11.30
2010,08,28,07,27,9.60
2010,08,28,07,28,16.10
2010,08,28,07,29,9.60
2010,08,28,07,30,14.50
2010,08,28,07,31,8.10
2010,08,28,07,32,9.60
2010,08,28,07,33,11.30
2010,08,28,07,34,9.60
2010,08,28,07,35,14.50
2010,08,28,07,36,9.60
2010,08,28,07,37,11.30
2010,08,28,07,38,11.30
2010,08,28,07,39,9.60
2010,08,28,07,40,6.40
2010,08,28,07,41,11.30
2010,08,28,07,42,17.70
2010,08,28,07,43,11.30
2010,08,28,07,44,9.60
2010,08,28,07,45,12.90
2010,08,28,07,46,11.30
2010,08,28,07,47,9.60
2010,08,28,07,48,9.60
2010,08,28,07,49,9.60
2010,08,28,07,50,17.70
2010,08,28,07,51,11.30
2010,08,28,07,52,8.10
2010,08,28,07,53,16.10
2010,08,28,07,54,9.60
2010,08,28,07,55,9.60
2010,08,28,07,56,12.90
2010,08,28,07,57,9.60
2010,08,28,07,58,12.90
2010,08,28,07,59,12.90
2010,08,28,08,00,14.50
2010,08,28,08,01,17.70
2010,08,28,08,02,11.30
2010,08,28,08,03,16.10
2010,08,28,08,04,11.30
2010,08,28,08,05,9.60
2010,08,28,08,06,8.10
2010,08,28,08,07,9.60
2010,08,28,08,08,17.70
2010,08,28,08,09,17.70
2010,08,28,08,10,14.50
2010,08,28,08,11,8.10
2010,08,28,08,12,14.50
2010,08,28,08,13,11.30
2010,08,28,08,14,11.30
2010,08,28,08,15,8.10
2010,08,28,08,16,17.70
2010,08,28,08,17,14.50
2010,08,28,08,18,14.50
2010,08,28,08,19,16.10
2010,08,28,08,20,17.70
2010,08,28,08,21,11.30
2010,08,28,08,22,16.10
2010,08,28,08,23,17.70
2010,08,28,08,24,9.60
2010,08,28,08,25,17.70
2010,08,28,08,26,17.70
2010,08,28,08,27,9.60
2010,08,28,08,28,8.10
2010,08,28,08,29,11.30
2010,08,28,08,30,17.70
2010,08,28,08,31,11.30
2010,08,28,08,32,14.50
2010,08,28,08,33,12.90
2010,08,28,08,34,8.10
2010,08,28,08,35,9.60
2010,08,28,08,36,19.30
2010,08,28,08,37,16.10
2010,08,28,08,38,20.90
2010,08,28,08,39,12.90
2010,08,28,08,40,8.10
2010,08,28,08,41,9.60
2010,08,28,08,42,12.90
2010,08,28,08,43,11.30
2010,08,28,08,44,16.10
2010,08,28,08,45,16.10
2010,08,28,08,46,14.50
2010,08,28,08,47,12.90
2010,08,28,08,48,19.30
2010,08,28,08,49,19.30
2010,08,28,08,50,11.30
2010,08,28,08,51,16.10
2010,08,28,08,52,8.10
2010,08,28,08,53,16.10
2010,08,28,08,54,9.60
2010,08,28,08,55,16.10
2010,08,28,08,56,14.50
2010,08,28,08,57,19.30
2010,08,28,08,58,16.10
2010,08,28,08,59,22.50
2010,08,28,09,00,16.10
2010,08,28,09,01,11.30
2010,08,28,09,02,11.30
2010,08,28,09,03,12.90
2010,08,28,09,04,14.50
2010,08,28,09,05,16.10
2010,08,28,09,06,12.90
2010,08,28,09,07,24.20
2010,08,28,09,08,19.30
2010,08,28,09,09,14.50
2010,08,28,09,10,16.10
2010,08,28,09,11,17.70
2010,08,28,09,12,20.90
2010,08,28,09,13,17.70
2010,08,28,09,14,16.10
2010,08,28,09,15,14.50
2010,08,28,09,16,14.50
2010,08,28,09,17,16.10
2010,08,28,09,18,16.10
2010,08,28,09,19,9.60
2010,08,28,09,20,11.30
2010,08,28,09,21,14.50
2010,08,28,09,22,16.10
2010,08,28,09,23,16.10
2010,08,28,09,24,20.90
2010,08,28,09,25,22.50
2010,08,28,09,26,22.50
2010,08,28,09,27,14.50
2010,08,28,09,28,24.20
2010,08,28,09,29,22.50
2010,08,28,09,30,22.50
2010,08,28,09,31,22.50
2010,08,28,09,32,24.20
2010,08,28,09,33,16.10
2010,08,28,09,34,19.30
2010,08,28,09,35,20.90
2010,08,28,09,36,19.30
2010,08,28,09,37,19.30
2010,08,28,09,38,20.90
2010,08,28,09,39,11.30
2010,08,28,09,40,22.50
2010,08,28,09,41,19.30
2010,08,28,09,42,20.90
2010,08,28,09,43,20.90
2010,08,28,09,44,20.90
2010,08,28,09,45,12.90
2010,08,28,09,46,17.70
2010,08,28,09,47,16.10
2010,08,28,09,48,17.70
2010,08,28,09,49,16.10
2010,08,28,09,50,14.50
2010,08,28,09,51,12.90
2010,08,28,09,52,16.10
2010,08,28,09,53,19.30
2010,08,28,09,54,17.70
2010,08,28,09,55,16.10
2010,08,28,09,56,16.10
2010,08,28,09,57,19.30
2010,08,28,09,58,20.90
2010,08,28,09,59,17.70
2010,08,28,10,00,14.50
2010,08,28,10,01,17.70
2010,08,28,10,02,20.90
2010,08,28,10,03,20.90
2010,08,28,10,04,24.20
2010,08,28,10,05,20.90
2010,08,28,10,06,20.90
2010,08,28,10,07,19.30
2010,08,28,10,08,16.10
2010,08,28,10,09,17.70
2010,08,28,10,10,19.30
2010,08,28,10,11,12.90
2010,08,28,10,12,19.30
2010,08,28,10,13,19.30
2010,08,28,10,14,16.10
2010,08,28,10,15,19.30
2010,08,28,10,16,19.30
2010,08,28,10,17,22.50
2010,08,28,10,18,16.10
2010,08,28,10,19,9.60
2010,08,28,10,20,20.90
2010,08,28,10,21,29.00
2010,08,28,10,22,25.70
2010,08,28,10,23,24.20
2010,08,28,10,24,27.40
2010,08,28,10,25,19.30
2010,08,28,10,26,24.20
2010,08,28,10,27,22.50
2010,08,28,10,28,16.10
2010,08,28,10,29,19.30
2010,08,28,10,30,20.90
2010,08,28,10,31,16.10
2010,08,28,10,32,9.60
2010,08,28,10,33,11.30
2010,08,28,10,34,17.70
2010,08,28,10,35,24.20
2010,08,28,10,36,19.30
2010,08,28,10,37,16.10
2010,08,28,10,38,20.90
2010,08,28,10,39,22.50
2010,08,28,10,40,16.10
2010,08,28,10,41,14.50
2010,08,28,10,42,19.30
2010,08,28,10,43,19.30
2010,08,28,10,44,20.90
2010,08,28,10,45,22.50
2010,08,28,10,46,20.90
2010,08,28,10,47,20.90
2010,08,28,10,48,22.50
2010,08,28,10,49,20.90
2010,08,28,10,50,19.30
2010,08,28,10,51,24.20
2010,08,28,10,52,25.70
2010,08,28,10,53,25.70
2010,08,28,10,54,20.90
2010,08,28,10,55,20.90
2010,08,28,10,56,16.10
2010,08,28,10,57,27.40
2010,08,28,10,58,24.20
2010,08,28,10,59,22.50
2010,08,28,11,00,22.50
2010,08,28,11,01,25.70
2010,08,28,11,02,29.00
2010,08,28,11,03,22.50
2010,08,28,11,04,16.10
2010,08,28,11,05,20.90
2010,08,28,11,06,16.10
2010,08,28,11,07,14.50
2010,08,28,11,08,20.90
2010,08,28,11,09,17.70
2010,08,28,11,10,16.10
2010,08,28,11,11,16.10
2010,08,28,11,12,20.90
2010,08,28,11,13,24.20
2010,08,28,11,14,17.70
2010,08,28,11,15,20.90
2010,08,28,11,16,19.30
2010,08,28,11,17,14.50
2010,08,28,11,18,12.90
2010,08,28,11,19,9.60
2010,08,28,11,20,14.50
2010,08,28,11,21,20.90
2010,08,28,11,22,27.40
2010,08,28,11,23,19.30
2010,08,28,11,24,20.90
2010,08,28,11,25,19.30
2010,08,28,11,26,17.70
2010,08,28,11,27,25.70
2010,08,28,11,28,17.70
2010,08,28,11,29,16.10
2010,08,28,11,30,20.90
2010,08,28,11,31,16.10
2010,08,28,11,32,19.30
2010,08,28,11,33,24.20
2010,08,28,11,34,14.50
2010,08,28,11,35,24.20
2010,08,28,11,36,19.30
2010,08,28,11,37,24.20
2010,08,28,11,38,19.30
2010,08,28,11,39,19.30
2010,08,28,11,40,22.50
2010,08,28,11,41,22.50
2010,08,28,11,42,22.50
2010,08,28,11,43,25.70
2010,08,28,11,44,22.50
2010,08,28,11,45,29.00
2010,08,28,11,46,20.90
2010,08,28,11,47,20.90
2010,08,28,11,48,20.90
2010,08,28,11,49,24.20
2010,08,28,11,50,20.90
2010,08,28,11,51,17.70
2010,08,28,11,52,17.70
2010,08,28,11,53,20.90
2010,08,28,11,54,20.90
2010,08,28,11,55,22.50
2010,08,28,11,56,25.70
2010,08,28,11,57,22.50
2010,08,28,11,58,19.30
2010,08,28,11,59,22.50
2010,08,28,12,00,22.50
2010,08,28,12,01,20.90
2010,08,28,12,02,25.70
2010,08,28,12,03,24.20
2010,08,28,12,04,24.20
2010,08,28,12,05,20.90
2010,08,28,12,06,27.40
2010,08,28,12,07,25.70
2010,08,28,12,08,22.50
2010,08,28,12,09,20.90
2010,08,28,12,10,29.00
2010,08,28,12,11,25.70
2010,08,28,12,12,22.50
2010,08,28,12,13,22.50
2010,08,28,12,14,25.70
2010,08,28,12,15,25.70
2010,08,28,12,16,22.50
2010,08,28,12,17,29.00
2010,08,28,12,18,22.50
2010,08,28,12,19,24.20
2010,08,28,12,20,25.70
2010,08,28,12,21,22.50
2010,08,28,12,22,25.70
2010,08,28,12,23,22.50
2010,08,28,12,24,25.70
2010,08,28,12,25,20.90
2010,08,28,12,26,24.20
2010,08,28,12,27,24.20
2010,08,28,12,28,27.40
2010,08,28,12,29,24.20
2010,08,28,12,30,25.70
2010,08,28,12,31,22.50
2010,08,28,12,32,24.20
2010,08,28,12,33,17.70
2010,08,28,12,34,16.10
2010,08,28,12,35,19.30
2010,08,28,12,36,20.90
2010,08,28,12,37,25.70
2010,08,28,12,38,22.50
2010,08,28,12,39,22.50
2010,08,28,12,40,19.30
2010,08,28,12,41,20.90
2010,08,28,12,42,24.20
2010,08,28,12,43,19.30
2010,08,28,12,44,20.90
2010,08,28,12,45,24.20
2010,08,28,12,46,27.40
2010,08,28,12,47,22.50
2010,08,28,12,48,19.30
2010,08,28,12,49,24.20
2010,08,28,12,50,25.70
2010,08,28,12,51,24.20
2010,08,28,12,52,20.90
2010,08,28,12,53,27.40
2010,08,28,12,54,16.10
2010,08,28,12,55,19.30
2010,08,28,12,56,19.30
2010,08,28,12,57,24.20
2010,08,28,12,58,22.50
2010,08,28,12,59,20.90
2010,08,28,13,00,24.20
2010,08,28,13,01,24.20
2010,08,28,13,02,24.20
2010,08,28,13,03,19.30
2010,08,28,13,04,25.70
2010,08,28,13,05,22.50
2010,08,28,13,06,24.20
2010,08,28,13,07,24.20
2010,08,28,13,08,22.50
2010,08,28,13,09,20.90
2010,08,28,13,10,20.90
2010,08,28,13,11,20.90
2010,08,28,13,12,22.50
2010,08,28,13,13,24.20
2010,08,28,13,14,22.50
2010,08,28,13,15,20.90
2010,08,28,13,16,22.50
2010,08,28,13,17,24.20
2010,08,28,13,18,25.70
2010,08,28,13,19,22.50
2010,08,28,13,20,24.20
2010,08,28,13,21,29.00
2010,08,28,13,22,24.20
2010,08,28,13,23,22.50
2010,08,28,13,24,16.10
2010,08,28,13,25,22.50
2010,08,28,13,26,22.50
2010,08,28,13,27,20.90
2010,08,28,13,28,25.70
2010,08,28,13,29,24.20
2010,08,28,13,30,22.50
2010,08,28,13,31,22.50
2010,08,28,13,32,17.70
2010,08,28,13,33,20.90
2010,08,28,13,34,20.90
2010,08,28,13,35,19.30
2010,08,28,13,36,24.20
2010,08,28,13,37,20.90
2010,08,28,13,38,20.90
2010,08,28,13,39,17.70
2010,08,28,13,40,17.70
2010,08,28,13,41,24.20
2010,08,28,13,42,19.30
2010,08,28,13,43,16.10
2010,08,28,13,44,20.90
2010,08,28,13,45,20.90
2010,08,28,13,46,24.20
2010,08,28,13,47,24.20
2010,08,28,13,48,17.70
2010,08,28,13,49,20.90
2010,08,28,13,50,19.30
2010,08,28,13,51,17.70
2010,08,28,13,52,24.20
2010,08,28,13,53,24.20
2010,08,28,13,54,22.50
2010,08,28,13,55,22.50
2010,08,28,13,56,22.50
2010,08,28,13,57,19.30
2010,08,28,13,58,19.30
2010,08,28,13,59,24.20
2010,08,28,14,00,20.90
2010,08,28,14,01,22.50
2010,08,28,14,02,20.90
2010,08,28,14,03,19.30
2010,08,28,14,04,20.90
2010,08,28,14,05,24.20
2010,08,28,14,06,17.70
2010,08,28,14,07,20.90
2010,08,28,14,08,24.20
2010,08,28,14,09,20.90
2010,08,28,14,10,20.90
2010,08,28,14,11,20.90
2010,08,28,14,12,16.10
2010,08,28,14,13,14.50
2010,08,28,14,14,17.70
2010,08,28,14,15,19.30
2010,08,28,14,16,11.30
2010,08,28,14,17,9.60
2010,08,28,14,18,11.30
2010,08,28,14,19,19.30
2010,08,28,14,20,19.30
2010,08,28,14,21,17.70
2010,08,28,14,22,17.70
2010,08,28,14,23,19.30
2010,08,28,14,24,24.20
2010,08,28,14,25,24.20
2010,08,28,14,26,19.30
2010,08,28,14,27,19.30
2010,08,28,14,28,17.70
2010,08,28,14,29,20.90
2010,08,28,14,30,19.30
2010,08,28,14,31,19.30
2010,08,28,14,32,19.30
2010,08,28,14,33,20.90
2010,08,28,14,34,24.20
2010,08,28,14,35,20.90
2010,08,28,14,36,22.50
2010,08,28,14,37,16.10
2010,08,28,14,38,22.50
2010,08,28,14,39,20.90
2010,08,28,14,40,17.70
2010,08,28,14,41,17.70
2010,08,28,14,42,14.50
2010,08,28,14,43,20.90
2010,08,28,14,44,20.90
2010,08,28,14,45,17.70
2010,08,28,14,46,17.70
2010,08,28,14,47,20.90
2010,08,28,14,48,24.20
2010,08,28,14,49,20.90
2010,08,28,14,50,19.30
2010,08,28,14,51,16.10
2010,08,28,14,52,20.90
2010,08,28,14,53,22.50
2010,08,28,14,54,22.50
2010,08,28,14,55,19.30
2010,08,28,14,56,20.90
2010,08,28,14,57,24.20
2010,08,28,14,58,19.30
2010,08,28,14,59,17.70
2010,08,28,15,00,19.30
2010,08,28,15,01,17.70
2010,08,28,15,02,24.20
2010,08,28,15,03,24.20
2010,08,28,15,04,17.70
2010,08,28,15,05,16.10
2010,08,28,15,06,19.30
2010,08,28,15,07,17.70
2010,08,28,15,08,16.10
2010,08,28,15,09,17.70
2010,08,28,15,10,19.30
2010,08,28,15,11,20.90
2010,08,28,15,12,17.70
2010,08,28,15,13,19.30
2010,08,28,15,14,14.50
2010,08,28,15,15,17.70
2010,08,28,15,16,22.50
2010,08,28,15,17,14.50
2010,08,28,15,18,20.90
2010,08,28,15,19,17.70
2010,08,28,15,20,17.70
2010,08,28,15,21,17.70
2010,08,28,15,22,16.10
2010,08,28,15,23,11.30
2010,08,28,15,24,20.90
2010,08,28,15,25,19.30
2010,08,28,15,26,20.90
2010,08,28,15,27,20.90
2010,08,28,15,28,17.70
2010,08,28,15,29,16.10
2010,08,28,15,30,17.70
2010,08,28,15,31,20.90
2010,08,28,15,32,19.30
2010,08,28,15,33,19.30
2010,08,28,15,34,17.70
2010,08,28,15,35,16.10
2010,08,28,15,36,12.90
2010,08,28,15,37,16.10
2010,08,28,15,38,20.90
2010,08,28,15,39,20.90
2010,08,28,15,40,16.10
2010,08,28,15,41,19.30
2010,08,28,15,42,19.30
2010,08,28,15,43,20.90
2010,08,28,15,44,14.50
2010,08,28,15,45,14.50
2010,08,28,15,46,17.70
2010,08,28,15,47,14.50
2010,08,28,15,48,17.70
2010,08,28,15,49,16.10
2010,08,28,15,50,17.70
2010,08,28,15,51,11.30
2010,08,28,15,52,17.70
2010,08,28,15,53,20.90
2010,08,28,15,54,16.10
2010,08,28,15,55,16.10
2010,08,28,15,56,20.90
2010,08,28,15,57,17.70
2010,08,28,15,58,16.10
2010,08,28,15,59,14.50
2010,08,28,16,00,16.10
2010,08,28,16,01,16.10
2010,08,28,16,02,17.70
2010,08,28,16,03,19.30
2010,08,28,16,04,20.90
2010,08,28,16,05,17.70
2010,08,28,16,06,16.10
2010,08,28,16,07,16.10
2010,08,28,16,08,14.50
2010,08,28,16,09,14.50
2010,08,28,16,10,20.90
2010,08,28,16,11,9.60
2010,08,28,16,12,16.10
2010,08,28,16,13,20.90
2010,08,28,16,14,16.10
2010,08,28,16,15,19.30
2010,08,28,16,16,19.30
2010,08,28,16,17,19.30
2010,08,28,16,18,16.10
2010,08,28,16,19,9.60
2010,08,28,16,20,14.50
2010,08,28,16,21,9.60
2010,08,28,16,22,12.90
2010,08,28,16,23,14.50
2010,08,28,16,24,11.30
2010,08,28,16,25,9.60
2010,08,28,16,26,19.30
2010,08,28,16,27,19.30
2010,08,28,16,28,14.50
2010,08,28,16,29,16.10
2010,08,28,16,30,19.30
2010,08,28,16,31,16.10
2010,08,28,16,32,17.70
2010,08,28,16,33,16.10
2010,08,28,16,34,11.30
2010,08,28,16,35,11.30
2010,08,28,16,36,14.50
2010,08,28,16,37,16.10
2010,08,28,16,38,19.30
2010,08,28,16,39,11.30
2010,08,28,16,40,9.60
2010,08,28,16,41,8.10
2010,08,28,16,42,14.50
2010,08,28,16,43,17.70
2010,08,28,16,44,11.30
2010,08,28,16,45,14.50
2010,08,28,16,46,9.60
2010,08,28,16,47,16.10
2010,08,28,16,48,14.50
2010,08,28,16,49,19.30
2010,08,28,16,50,16.10
2010,08,28,16,51,16.10
2010,08,28,16,52,19.30
2010,08,28,16,53,14.50
2010,08,28,16,54,19.30
2010,08,28,16,55,11.30
2010,08,28,16,56,11.30
2010,08,28,16,57,14.50
2010,08,28,16,58,12.90
2010,08,28,16,59,12.90
2010,08,28,17,00,16.10
2010,08,28,17,01,16.10
2010,08,28,17,02,14.50
2010,08,28,17,03,9.60
2010,08,28,17,04,17.70
2010,08,28,17,05,19.30
2010,08,28,17,06,19.30
2010,08,28,17,07,17.70
2010,08,28,17,08,20.90
2010,08,28,17,09,19.30
2010,08,28,17,10,16.10
2010,08,28,17,11,14.50
2010,08,28,17,12,16.10
2010,08,28,17,13,20.90
2010,08,28,17,14,16.10
2010,08,28,17,15,12.90
2010,08,28,17,16,16.10
2010,08,28,17,17,11.30
2010,08,28,17,18,16.10
2010,08,28,17,19,17.70
2010,08,28,17,20,11.30
2010,08,28,17,21,9.60
2010,08,28,17,22,11.30
2010,08,28,17,23,11.30
2010,08,28,17,24,19.30
2010,08,28,17,25,9.60
2010,08,28,17,26,12.90
2010,08,28,17,27,8.10
2010,08,28,17,28,12.90
2010,08,28,17,29,9.60
2010,08,28,17,30,11.30
2010,08,28,17,31,12.90
2010,08,28,17,32,11.30
2010,08,28,17,33,14.50
2010,08,28,17,34,11.30
2010,08,28,17,35,9.60
2010,08,28,17,36,12.90
2010,08,28,17,37,9.60
2010,08,28,17,38,9.60